Miscellaneous Local Product
Issued by NWS North Platte, NE

Home | Current Version | Previous Version | Text Only | Print | Product List | Glossary On
Versions: 1 2 3 4 5 6 7 8 9 10 11 12 13 14 15 16 17 18 19 20 21 22 23 24 25 26 27 28 29 30 31 32 33 34 35 36 37 38 39 40 41 42 43 44 45 46 47 48 49 50
000
AXUS43 KLBF 020410
MISLBF


WESTERN AND NORTH CENTRAL NEBRASKA HOURLY WEATHER ROUNDUP
NATIONAL WEATHER SERVICE NORTH PLATTE NE
1100 PM CDT FRI AUG 01 2014

***STATIONS NOT REPORTING VARIABLES SUCH AS SKY/WEATHER OR
PRESSURE ARE PROVIDED BY THE NEBRASKA DEPARTMENT OF
ROADS...RAWS...AND APRS NETWORKS...AND ARE NOT UNDER
NATIONAL WEATHER SERVICE QUALITY CONTROL***

...OBSERVATIONS IN AND NEAR THE EASTERN PANHANDLE OF NEBRASKA...

CITY           SKY/WX    TMP DP  RH WIND       PRES   REMARKS
PINE RIDGE     PTCLDY    62  53  72 CALM      30.10R
CHADRON        PTCLDY    65  46  50 W6        30.10R
ALLIANCE       CLOUDY    71  45  39 SE7       30.15R
SIDNEY         CLEAR     63  50  62 S8        30.21R
WHITECLAY        N/A     63  51  64 E6          N/A
RUSHVILLE        N/A     73  37  26 NW8         N/A
GORDON           N/A     80  47  31 E10         N/A
CRESCENT LAKE    N/A     73  50  45 S6G13       N/A
LISCO            N/A     77  41  27 CALM        N/A
BIG SPRINGS      N/A     69  52  54 CALM        N/A
$$

...OBSERVATIONS IN NORTH CENTRAL NEBRASKA...

CITY           SKY/WX    TMP DP  RH WIND       PRES   REMARKS
VALENTINE      CLOUDY    73  61  65 S15       30.11R
THEDFORD       PTCLDY    76  59  53 S13       30.13R
O`NEILL        MOCLDY    70  59  67 SE6       30.12S
ORD            CLEAR     67  58  72 SW7       30.12R
BROKEN BOW     CLEAR     66  59  78 SE3       30.14R
BROWNLEE         N/A     75  61  60 E16         N/A
SPRINGVIEW       N/A     72  62  71 E3G12       N/A
DUNNING          N/A     72  61  68 E7          N/A
ROSE             N/A     73  63  68 E10         N/A
NEWPORT          N/A     72  59  63 S3          N/A
SARGENT          N/A     67  58  73 CALM        N/A
COMSTOCK         N/A     69  63  79 S6          N/A
CHAMBERS         N/A     67  56  69 S3          N/A
EWING            N/A     66  60  80 CALM        N/A
$$

...OBSERVATIONS IN SOUTHWEST NEBRASKA AND FAR NORTHEAST COLORADO...

CITY           SKY/WX    TMP DP  RH WIND       PRES   REMARKS
WRAY             N/A     71  52  50 S3        30.18S
HOLYOKE        FAIR      68  55  64 S6        30.18S
IMPERIAL       CLEAR     67  55  65 SE8       30.16R
OGALLALA       CLEAR     69  53  57 S6        30.15R
NORTH PLATTE   CLEAR     64  60  87 E6        30.14R
MCCOOK         PTCLDY    71  58  63 SE6       30.14R
LEXINGTON      CLEAR     71  61  68 SE7       30.13S
PAXTON           N/A     70  57  62 S3          N/A
SUTHERLAND       N/A     78  61  56 S8          N/A
BRADY            N/A     68  60  74 CALM        N/A
GOTHENBURG       N/A     71  59  66 E3          N/A
CALLAWAY         N/A     66  61  84 SE8         N/A
$$

...SOME WEATHER OBSERVATIONS FROM AROUND THE REGION...

CITY           SKY/WX    TMP DP  RH WIND       PRES   REMARKS
DENVER         PTCLDY    68  49  50 S13       30.27S
LARAMIE        CLEAR     56  45  66 E8        30.38R
CHEYENNE       CLEAR     65  46  50 W5        30.31R
SCOTTSBLUFF    CLEAR     69  53  56 CALM      30.16R
RAPID CITY     PTCLDY    72  48  42 W7        30.08R
PIERRE         CLOUDY    73  57  57 S9        29.99R
WINNER         RAIN      69  59  70 SE12      30.10R
SIOUX FALLS    PTCLDY    71  58  63 SW3       30.12R
OMAHA          CLEAR     69  63  81 CALM      30.10R
GRAND ISLAND   CLEAR     66  60  81 E5        30.13R
KANSAS CITY    CLEAR     75  63  66 E8        30.09R
WICHITA        PTCLDY    74  65  73 S3        30.06R
HAYS           CLEAR     70  52  52 E7        30.11S
LIBERAL        MOCLDY    75  54  46 SE6       30.17R
GOODLAND       PTCLDY    66  55  67 S8        30.20R
$$



USA.gov is the U.S. government's official web portal to all federal, state and local government web resources and services.